User: anonymous
Location: Unspecified
(0.0000°N, 0.0000°E)
Time: 22:07:45
(UTC+00:00)
Language:

A-11 Canister half - Orbit

View from above orbital plane
View from above orbital plane
View from above satellite
View from above satellite

Ground track
Ground track

The orbit data is extracted from the following two-line orbital elements,

1 00051U 60009C   14240.80783385 -.00000085  00000-0  00000+0 0  6365
2 00051 047.2136 064.9656 0103148 341.7198 145.2265 12.18236756405686
Epoch (UTC): 28 August 2014 19:23:16
Eccentricity: 0.0103148
inclination: 47.2136°
perigee height: 1518 km
apogee height: 1682 km
right ascension of ascending node: 64.9656°
argument of perigee: 341.7198°
revolutions per day: 12.18236756
mean anomaly at epoch: 145.2265°
orbit number at epoch: 40568

The dashed part of the orbit path shows where the satellite is in the earth's shadow,  

DLR